Find Starlink 30510

NORAD ID: 57981 Int'l Des: 2023-151 Owner: SPXS Country: US Constellation: starlink operational
LEOCIRCULAR

当前视图

正在加载3D地球...

About Starlink 30510

Starlink 30510 (NORAD 57981) is a starlink constellation satellite (v2 mini) launched Sep 30, 2023 by SPXS of US. It operates in LEO, CIRCULAR orbit with a mass of 730.00 kg.

关于 Starlink 30510

正在加载描述...

即将过境

Passes for default location (London). Set your location on the main map for personalized predictions.

高度历史

Loading altitude history...

两行轨道根数

1 57981U 23151T 26168.26172573 -.00000506 00000-0 -88588-5 0 9993
2 57981 43.0010 151.5856 0000848 270.2508 89.8246 15.27583199150783
Epoch: Jun 17, 2026 • Age: 21 hours

当前状态

高度 485.2 km
速度 7.63 km/s
星下点 36.09°N, 112.74°W
发射日期 Sep 30, 2023
运行时间 2.7 years
类型 internet

技术详情

分类 Payload
质量 730.00 kg
干质量 700.00 kg
总质量 730.00 kg
长度 0.30 m
直径 4.10 m
跨度 29.00 m
形状 Box + pan
制造商 SPXS
平台类型 Starlink V2M
阶段状态 In Orbit
所有者/国家 SPXS/US

Most Searched